STARLINK-34667

Last updated on Sat Aug 16 2025 00:02:05 GMT+0000 (Coordinated Universal Time)

1 64815U 25150AB 25227.37372270 .00087248 00000+0 14053-2 0 9999 2 64815 70.0001 315.8409 0003395 274.1088 85.9710 15.52520554 5081
UTC large
Height (km)
Speed (km/s)
/
Latitude / Longitude
Inclination (degrees)
Orbital Period (minutes)
Azimuth
Elevation
Range (km)
Doppler Factor

Next 0 passes for location: London (51.5072 / 0.1276)

Sorry there are no passes over London.